Newport, RI

5:29 AM EST on November 15, 2019 (GMT -0500)
Newport State

Weather History for KUUU - September, 2019

Change the Weather History Date:

Sunday, September 22, 2019

  Actual Average Record
Temperature  
Mean Temperature 68 °F -  
Max Temperature 73 °F 70 °F 88 °F (1980)
Min Temperature 62 °F 54 °F 39 °F (1997)
Cooling Degree Days 2    
Growing Degree Days 18 (Base 50)    
Moisture  
Dew Point 63 °F    
Average Humidity 88    
Maximum Humidity 96    
Minimum Humidity 75    
Precipitation  
Precipitation 0.00 in - - ()
Sea Level Pressure  
Sea Level Pressure 30.13 in    
Wind  
Wind Speed 4 mph ()    
Max Wind Speed 10 mph    
Max Gust Speed -    
Visibility 4.9 miles    
Events Fog    
Averages and records for this station are not official NWS values.
T = Trace of Precipitation, MM = Missing Value Source: Averaged Metar Reports

Daily Weather History Graph

Daily Weather History Graph

Search for Another Location

Airport or City:

Astronomy

Sep. 22, 2019 Rise Set
Actual Time 6:32 AM EDT 6:42 PM EDT
Civil Twilight 6:04 AM EDT 7:10 PM EDT
Nautical Twilight 5:32 AM EDT 7:42 PM EDT
Astronomical Twilight 4:59 AM EDT 8:15 PM EDT
Moon No Moon Rise 2:39 PM EDT (9/22)
Length of Visible Light 13h 05m
Length of Day
12h 10m
Last Quarter, 44% of the Moon is Illuminated
Sep 22
Last Quarter
Sep 28
New
Oct 5
First Quarter
Oct 13
Full
Oct 21
Last Quarter

Hourly Weather History & Observations

Time (EDT) Temp. Dew Point Humidity Pressure Visibility Wind Dir Wind Speed Gust Speed Precip Events Conditions
12:53 AM 64.9 °F 62.1 °F 90% 30.19 in 7.0 mi SSW 3.5 mph - N/A   Clear
1:53 AM 64.0 °F 62.1 °F 93% 30.18 in 3.0 mi Calm Calm - N/A   Clear
2:02 AM 64.9 °F 62.1 °F 90% 30.19 in 2.5 mi SSW 3.5 mph - N/A   Clear
2:34 AM 64.9 °F 62.1 °F 90% 30.18 in 1.2 mi SSW 3.5 mph - N/A   Clear
2:53 AM 63.0 °F 61.0 °F 93% 30.17 in 0.2 mi Calm Calm - N/A Fog Fog
3:53 AM 64.0 °F 62.1 °F 93% 30.16 in 0.5 mi SSW 3.5 mph - N/A Fog Fog
4:07 AM 64.0 °F 62.1 °F 93% 30.16 in 1.2 mi SSW 3.5 mph - N/A   Partly Cloudy
4:20 AM 64.0 °F 62.1 °F 93% 30.16 in 0.8 mi South 3.5 mph - N/A   Mist
4:53 AM 63.0 °F 61.0 °F 93% 30.16 in 0.2 mi Calm Calm - N/A Fog Fog
5:25 AM 63.0 °F 61.0 °F 93% 30.17 in 0.2 mi Calm Calm - N/A Fog Fog
5:33 AM 63.0 °F 61.0 °F 93% 30.17 in 2.0 mi Calm Calm - N/A   Clear
5:49 AM 64.4 °F 60.8 °F 88% 30.17 in 1.5 mi South 3.5 mph - N/A   Clear
5:53 AM 63.0 °F 61.0 °F 93% 30.16 in 1.0 mi Calm Calm - N/A   Mist
6:00 AM 63.0 °F 61.0 °F 93% 30.17 in 0.2 mi Calm Calm - N/A Fog Fog
6:53 AM 62.1 °F 61.0 °F 96% 30.16 in 0.2 mi South 3.5 mph - N/A Fog Fog
7:53 AM 64.9 °F 63.0 °F 93% 30.17 in 0.2 mi SSW 4.6 mph - N/A Fog Fog
8:48 AM 66.2 °F 64.4 °F 94% 30.18 in 1.2 mi South 5.8 mph - N/A   Overcast
8:53 AM 66.0 °F 64.0 °F 93% 30.17 in 1.5 mi South 6.9 mph - N/A   Overcast
9:53 AM 69.1 °F 66.0 °F 90% 30.17 in 5.0 mi South 9.2 mph - N/A   Mostly Cloudy
10:00 AM 69.1 °F 66.0 °F 90% 30.17 in 6.0 mi South 9.2 mph - N/A   Scattered Clouds
10:19 AM 68.0 °F 64.9 °F 90% 30.17 in 6.0 mi South 9.2 mph - N/A   Mostly Cloudy
10:53 AM 71.1 °F 64.9 °F 81% 30.16 in 9.0 mi South 10.4 mph - N/A   Mostly Cloudy
11:27 AM 70.0 °F 64.9 °F 84% 30.15 in 7.0 mi South 9.2 mph - N/A   Scattered Clouds
11:53 AM 71.1 °F 64.0 °F 78% 30.15 in 8.0 mi South 10.4 mph - N/A   Clear
12:53 PM 73.0 °F 64.9 °F 76% 30.13 in 8.0 mi South 10.4 mph - N/A   Clear
1:53 PM 72.0 °F 64.0 °F 76% 30.11 in 10.0 mi South 10.4 mph - N/A   Clear
2:53 PM 73.0 °F 64.9 °F 76% 30.09 in 10.0 mi Variable 5.8 mph - N/A   Clear
3:53 PM 72.0 °F 64.9 °F 78% 30.08 in 10.0 mi SSW 9.2 mph - N/A   Clear
4:53 PM 71.1 °F 63.0 °F 75% 30.06 in 10.0 mi South 9.2 mph - N/A   Clear
5:53 PM 68.0 °F 64.0 °F 87% 30.05 in 8.0 mi SSW 8.1 mph - N/A   Clear
6:53 PM 68.0 °F 64.0 °F 87% 30.04 in 8.0 mi Variable 4.6 mph - N/A   Clear
7:53 PM 68.0 °F 64.0 °F 87% 30.05 in 10.0 mi SSW 5.8 mph - N/A   Clear
8:53 PM 68.0 °F 64.0 °F 87% 30.05 in 10.0 mi Variable 3.5 mph - N/A   Clear
9:53 PM 68.0 °F 64.9 °F 90% 30.04 in 8.0 mi SSW 6.9 mph - N/A   Clear
10:00 PM 68.0 °F 64.9 °F 90% 30.04 in 8.0 mi SSW 8.1 mph - N/A   Partly Cloudy
10:53 PM 68.0 °F 64.9 °F 90% 30.02 in 7.0 mi SSW 6.9 mph - N/A   Scattered Clouds
11:02 PM 68.0 °F 64.9 °F 90% 30.02 in 7.0 mi SSW 5.8 mph - N/A   Mostly Cloudy
11:53 PM 68.0 °F 64.9 °F 90% 30.01 in 7.0 mi SSW 5.8 mph - N/A   Overcast